Time,TemperatureF,DewpointF,PressureIn,WindDirection,WindDirectionDegrees,WindSpeedMPH,WindSpeedGustMPH,Humidity,HourlyPrecipIn,Conditions,Clouds,dailyrainin,SoftwareType,DateUTC
2013-01-04 00:10:00,29.0,25.3,30.15,West,281,7.0,14.0,86,0.00,CLR,SKC,0.00,WeatherDisplay:10.37,2013-01-04 05:10:00,
2013-01-04 00:20:00,28.7,25.3,30.15,West,277,5.0,14.0,87,0.00,CLR,SKC,0.00,WeatherDisplay:10.37,2013-01-04 05:20:00,
2013-01-04 00:30:00,28.1,25.3,30.15,West,276,8.0,16.0,89,0.00,CLR,SKC,0.00,WeatherDisplay:10.37,2013-01-04 05:30:00,
2013-01-04 00:40:00,27.3,24.5,30.15,West,273,9.0,15.0,89,0.00,CLR,SKC,0.00,WeatherDisplay:10.37,2013-01-04 05:40:00,
2013-01-04 00:50:00,26.6,23.6,30.14,West,271,9.0,15.0,88,0.00,CLR,SKC,0.00,WeatherDisplay:10.37,2013-01-04 05:50:00,
2013-01-04 01:00:00,26.2,23.4,30.14,West,274,9.0,17.0,89,0.00,CLR,SKC,0.00,WeatherDisplay:10.37,2013-01-04 06:00:00,
2013-01-04 01:10:00,25.2,22.1,30.14,West,277,10.0,16.0,88,0.00,CLR,SKC,0.00,WeatherDisplay:10.37,2013-01-04 06:10:00,
2013-01-04 01:20:00,25.0,22.0,30.13,West,273,6.0,13.0,88,0.00,CLR,SKC,0.00,WeatherDisplay:10.37,2013-01-04 06:20:00,
2013-01-04 01:30:00,24.6,20.2,30.13,West,276,9.0,15.0,83,0.00,CLR,SKC,0.00,WeatherDisplay:10.37,2013-01-04 06:30:00,
2013-01-04 01:40:00,24.6,21.8,30.13,West,272,5.0,12.0,89,0.00,CLR,SKC,0.00,WeatherDisplay:10.37,2013-01-04 06:40:00,
2013-01-04 01:50:00,23.6,20.8,30.14,West,275,8.0,15.0,89,0.00,CLR,SKC,0.00,WeatherDisplay:10.37,2013-01-04 06:50:00,
2013-01-04 02:00:00,23.5,19.1,30.14,West,274,6.0,13.0,83,0.00,CLR,SKC,0.00,WeatherDisplay:10.37,2013-01-04 07:00:00,
2013-01-04 02:10:00,23.1,18.7,30.15,West,275,8.0,14.0,83,0.00,CLR,SKC,0.00,WeatherDisplay:10.37,2013-01-04 07:10:00,
2013-01-04 02:20:00,23.3,20.5,30.15,West,270,3.0,14.0,89,0.00,CLR,SKC,0.00,WeatherDisplay:10.37,2013-01-04 07:20:00,
2013-01-04 02:30:00,22.9,19.9,30.15,West,278,6.0,12.0,88,0.00,CLR,SKC,0.00,WeatherDisplay:10.37,2013-01-04 07:30:00,
2013-01-04 02:40:00,22.4,19.3,30.16,West,271,6.0,13.0,88,0.00,CLR,SKC,0.00,WeatherDisplay:10.37,2013-01-04 07:40:00,
2013-01-04 02:50:00,22.1,19.1,30.16,West,270,8.0,15.0,88,0.00,CLR,SKC,0.00,WeatherDisplay:10.37,2013-01-04 07:50:00,
2013-01-04 03:00:00,22.0,18.9,30.16,West,275,7.0,14.0,88,0.00,CLR,SKC,0.00,WeatherDisplay:10.37,2013-01-04 08:00:00,
2013-01-04 03:10:00,21.7,18.7,30.16,West,273,7.0,14.0,88,0.00,CLR,SKC,0.00,WeatherDisplay:10.37,2013-01-04 08:10:00,
2013-01-04 03:20:00,22.0,19.0,30.16,West,265,6.0,14.0,88,0.00,CLR,SKC,0.00,WeatherDisplay:10.37,2013-01-04 08:20:00,
2013-01-04 03:30:00,22.0,19.0,30.17,West,276,10.0,15.0,88,0.00,CLR,SKC,0.00,WeatherDisplay:10.37,2013-01-04 08:30:00,
2013-01-04 03:39:00,21.8,19.1,30.16,West,279,9.0,15.0,89,0.00,CLR,SKC,0.00,WeatherDisplay:10.37,2013-01-04 08:39:00,
2013-01-04 03:49:00,22.3,19.6,30.16,West,278,9.0,14.0,89,0.00,CLR,SKC,0.00,WeatherDisplay:10.37,2013-01-04 08:49:00,
2013-01-04 03:59:00,22.6,19.8,30.15,West,276,9.0,17.0,89,0.00,CLR,SKC,0.00,WeatherDisplay:10.37,2013-01-04 08:59:00,
2013-01-04 04:09:00,21.9,19.2,30.15,West,265,7.0,16.0,89,0.00,CLR,SKC,0.00,WeatherDisplay:10.37,2013-01-04 09:09:00,
2013-01-04 04:19:00,22.9,20.4,30.15,West,272,7.0,17.0,90,0.00,CLR,SKC,0.00,WeatherDisplay:10.37,2013-01-04 09:19:00,
2013-01-04 04:29:00,22.3,19.8,30.14,West,274,7.0,17.0,90,0.00,CLR,SKC,0.00,WeatherDisplay:10.37,2013-01-04 09:29:00,
2013-01-04 04:39:00,22.0,19.8,30.14,West,276,6.0,18.0,91,0.00,CLR,SKC,0.00,WeatherDisplay:10.37,2013-01-04 09:39:00,
2013-01-04 04:49:00,22.5,20.2,30.14,West,274,7.0,14.0,91,0.00,CLR,SKC,0.00,WeatherDisplay:10.37,2013-01-04 09:49:00,
2013-01-04 04:59:00,21.6,19.4,30.14,West,272,6.0,15.0,91,0.00,CLR,SKC,0.00,WeatherDisplay:10.37,2013-01-04 09:59:00,
2013-01-04 05:09:00,21.4,19.2,30.14,West,270,8.0,13.0,91,0.00,CLR,SKC,0.00,WeatherDisplay:10.37,2013-01-04 10:09:00,
2013-01-04 05:19:00,21.9,19.6,30.14,West,268,8.0,16.0,91,0.00,CLR,SKC,0.00,WeatherDisplay:10.37,2013-01-04 10:19:00,
2013-01-04 05:29:00,21.5,19.5,30.14,West,270,6.0,16.0,92,0.00,CLR,SKC,0.00,WeatherDisplay:10.37,2013-01-04 10:29:00,
2013-01-04 05:39:00,20.7,18.7,30.14,West,271,10.0,18.0,92,0.00,CLR,SKC,0.00,WeatherDisplay:10.37,2013-01-04 10:39:00,
2013-01-04 05:49:00,20.9,18.9,30.14,West,268,7.0,20.0,92,0.00,CLR,SKC,0.00,WeatherDisplay:10.37,2013-01-04 10:49:00,
2013-01-04 05:59:00,20.8,18.8,30.14,West,268,9.0,18.0,92,0.00,CLR,SKC,0.00,WeatherDisplay:10.37,2013-01-04 10:59:00,
2013-01-04 06:09:00,20.8,18.8,30.14,West,271,8.0,17.0,92,0.00,CLR,SKC,0.00,WeatherDisplay:10.37,2013-01-04 11:09:00,
2013-01-04 06:19:00,19.6,17.7,30.14,West,271,7.0,15.0,92,0.00,CLR,SKC,0.00,WeatherDisplay:10.37,2013-01-04 11:19:00,
2013-01-04 06:29:00,19.5,17.6,30.14,West,270,9.0,14.0,92,0.00,CLR,SKC,0.00,WeatherDisplay:10.37,2013-01-04 11:29:00,
2013-01-04 06:40:00,19.7,18.0,30.15,West,267,10.0,17.0,93,0.00,CLR,SKC,0.00,WeatherDisplay:10.37,2013-01-04 11:40:00,
2013-01-04 06:50:00,19.2,17.5,30.15,West,274,6.0,15.0,93,0.00,CLR,SKC,0.00,WeatherDisplay:10.37,2013-01-04 11:50:00,
2013-01-04 07:00:00,19.1,17.4,30.15,West,269,7.0,13.0,93,0.00,CLR,SKC,0.00,WeatherDisplay:10.37,2013-01-04 12:00:00,
2013-01-04 07:10:00,18.4,16.7,30.16,West,271,10.0,14.0,93,0.00,CLR,SKC,0.00,WeatherDisplay:10.37,2013-01-04 12:10:00,
2013-01-04 07:20:00,18.4,16.9,30.16,West,266,9.0,16.0,94,0.00,CLR,SKC,0.00,WeatherDisplay:10.37,2013-01-04 12:20:00,
2013-01-04 07:30:00,18.1,16.6,30.16,West,261,8.0,14.0,94,0.00,CLR,SKC,0.00,WeatherDisplay:10.37,2013-01-04 12:30:00,
2013-01-04 07:40:00,18.6,17.2,30.16,West,269,8.0,15.0,94,0.00,CLR,SKC,0.00,WeatherDisplay:10.37,2013-01-04 12:40:00,
2013-01-04 07:50:00,18.0,16.3,30.16,West,270,9.0,16.0,93,0.00,CLR,SKC,0.00,WeatherDisplay:10.37,2013-01-04 12:50:00,
2013-01-04 08:00:00,17.9,16.2,30.16,West,268,8.0,16.0,93,0.00,CLR,SKC,0.00,WeatherDisplay:10.37,2013-01-04 13:00:00,
2013-01-04 08:10:00,18.5,16.8,30.16,West,270,3.0,15.0,93,0.00,CLR,SKC,0.00,WeatherDisplay:10.37,2013-01-04 13:10:00,
2013-01-04 08:20:00,18.0,16.3,30.16,West,268,8.0,12.0,93,0.00,CLR,SKC,0.00,WeatherDisplay:10.37,2013-01-04 13:20:00,
2013-01-04 08:30:00,17.9,16.2,30.16,West,266,8.0,14.0,93,0.00,CLR,SKC,0.00,WeatherDisplay:10.37,2013-01-04 13:30:00,
2013-01-04 08:40:00,18.1,16.4,30.16,West,265,5.0,14.0,93,0.00,CLR,SKC,0.00,WeatherDisplay:10.37,2013-01-04 13:40:00,
2013-01-04 08:50:00,19.3,17.4,30.16,West,261,6.0,14.0,92,0.00,CLR,SKC,0.00,WeatherDisplay:10.37,2013-01-04 13:50:00,
2013-01-04 09:00:00,18.8,16.6,30.16,West,262,9.0,18.0,91,0.00,CLR,SKC,0.00,WeatherDisplay:10.37,2013-01-04 14:00:00,
2013-01-04 09:10:00,18.9,16.5,30.16,West,261,7.0,16.0,90,0.00,CLR,SKC,0.00,WeatherDisplay:10.37,2013-01-04 14:10:00,
2013-01-04 09:20:00,19.7,16.7,30.17,West,264,8.0,17.0,88,0.00,CLR,SKC,0.00,WeatherDisplay:10.37,2013-01-04 14:20:00,
2013-01-04 09:30:00,20.0,16.7,30.16,West,266,12.0,24.0,87,0.00,CLR,SKC,0.00,WeatherDisplay:10.37,2013-01-04 14:30:00,
2013-01-04 09:40:00,19.5,15.7,30.16,West,270,10.0,20.0,85,0.00,CLR,SKC,0.00,WeatherDisplay:10.37,2013-01-04 14:40:00,
2013-01-04 09:50:00,20.2,16.2,30.16,West,269,9.0,22.0,84,0.00,CLR,SKC,0.00,WeatherDisplay:10.37,2013-01-04 14:50:00,
2013-01-04 10:00:00,20.7,16.7,30.17,West,267,9.0,21.0,84,0.00,CLR,SKC,0.00,WeatherDisplay:10.37,2013-01-04 15:00:00,
2013-01-04 10:10:00,19.8,15.5,30.17,West,270,12.0,22.0,83,0.00,CLR,SKC,0.00,WeatherDisplay:10.37,2013-01-04 15:10:00,
2013-01-04 10:20:00,20.0,15.1,30.17,West,267,14.0,22.0,81,0.00,CLR,SKC,0.00,WeatherDisplay:10.37,2013-01-04 15:20:00,
2013-01-04 10:30:00,20.7,16.1,30.17,West,267,8.0,22.0,82,0.00,CLR,SKC,0.00,WeatherDisplay:10.37,2013-01-04 15:30:00,
2013-01-04 10:40:00,21.2,16.0,30.17,West,266,8.0,22.0,80,0.00,CLR,SKC,0.00,WeatherDisplay:10.37,2013-01-04 15:40:00,
2013-01-04 10:50:00,21.3,15.8,30.18,West,270,6.0,24.0,79,0.00,CLR,SKC,0.00,WeatherDisplay:10.37,2013-01-04 15:50:00,
2013-01-04 11:00:00,22.1,16.3,30.18,West,270,8.0,18.0,78,0.00,CLR,SKC,0.00,WeatherDisplay:10.37,2013-01-04 16:00:00,
2013-01-04 11:10:00,22.4,16.6,30.17,West,279,5.0,17.0,78,0.00,CLR,SKC,0.00,WeatherDisplay:10.37,2013-01-04 16:10:00,
2013-01-04 11:20:00,22.5,16.4,30.17,West,268,12.0,20.0,77,0.00,CLR,SKC,0.00,WeatherDisplay:10.37,2013-01-04 16:20:00,
2013-01-04 11:30:00,22.9,16.7,30.17,West,270,7.0,23.0,77,0.00,CLR,SKC,0.00,WeatherDisplay:10.37,2013-01-04 16:30:00,
2013-01-04 11:40:00,22.5,16.1,30.17,West,275,13.0,20.0,76,0.00,CLR,SKC,0.00,WeatherDisplay:10.37,2013-01-04 16:40:00,
2013-01-04 11:50:00,25.0,18.8,30.17,West,271,9.0,22.0,77,0.00,CLR,SKC,0.00,WeatherDisplay:10.37,2013-01-04 16:50:00,
2013-01-04 12:00:00,22.8,16.6,30.17,WNW,286,10.0,24.0,77,0.00,CLR,SKC,0.00,WeatherDisplay:10.37,2013-01-04 17:00:00,
2013-01-04 12:10:00,22.8,16.7,30.17,West,280,10.0,22.0,77,0.00,CLR,SKC,0.00,WeatherDisplay:10.37,2013-01-04 17:10:00,
2013-01-04 12:20:00,23.1,17.0,30.16,West,279,12.0,24.0,77,0.00,CLR,SKC,0.00,WeatherDisplay:10.37,2013-01-04 17:20:00,
2013-01-04 12:30:00,24.0,18.4,30.16,West,273,5.0,24.0,79,0.00,CLR,SKC,0.00,WeatherDisplay:10.37,2013-01-04 17:30:00,
2013-01-04 12:40:00,22.7,16.6,30.15,West,279,9.0,24.0,77,0.00,CLR,SKC,0.00,WeatherDisplay:10.37,2013-01-04 17:40:00,
2013-01-04 12:50:00,22.5,16.1,30.14,West,275,10.0,25.0,76,0.00,CLR,SKC,0.00,WeatherDisplay:10.37,2013-01-04 17:50:00,
2013-01-04 13:00:00,24.6,18.1,30.14,West,272,10.0,22.0,76,0.00,CLR,SKC,0.00,WeatherDisplay:10.37,2013-01-04 18:00:00,
2013-01-04 13:10:00,23.8,17.0,30.14,West,261,13.0,23.0,75,0.00,CLR,SKC,0.00,WeatherDisplay:10.37,2013-01-04 18:10:00,
2013-01-04 13:20:00,24.3,17.5,30.14,West,269,14.0,22.0,75,0.00,CLR,SKC,0.00,WeatherDisplay:10.37,2013-01-04 18:20:00,
2013-01-04 13:30:00,24.3,17.8,30.14,West,273,12.0,28.0,76,0.00,CLR,SKC,0.00,WeatherDisplay:10.37,2013-01-04 18:30:00,
2013-01-04 13:40:00,24.8,18.0,30.14,West,270,14.0,28.0,75,0.00,CLR,SKC,0.00,WeatherDisplay:10.37,2013-01-04 18:40:00,
2013-01-04 13:50:00,25.3,18.2,30.14,West,271,15.0,25.0,74,0.00,CLR,SKC,0.00,WeatherDisplay:10.37,2013-01-04 18:50:00,
2013-01-04 14:00:00,24.7,18.2,30.12,West,268,16.0,25.0,76,0.00,CLR,SKC,0.00,WeatherDisplay:10.37,2013-01-04 19:00:00,
2013-01-04 14:10:00,24.8,18.3,30.12,West,261,12.0,26.0,76,0.00,CLR,SKC,0.00,WeatherDisplay:10.37,2013-01-04 19:10:00,
2013-01-04 14:20:00,25.0,18.5,30.13,West,263,12.0,25.0,76,0.00,CLR,SKC,0.00,WeatherDisplay:10.37,2013-01-04 19:20:00,
2013-01-04 14:30:00,25.6,18.8,30.12,West,268,12.0,24.0,75,0.00,CLR,SKC,0.00,WeatherDisplay:10.37,2013-01-04 19:30:00,
2013-01-04 14:40:00,25.7,18.5,30.13,West,261,10.0,21.0,74,0.00,CLR,SKC,0.00,WeatherDisplay:10.37,2013-01-04 19:40:00,
2013-01-04 14:50:00,25.9,18.7,30.12,West,265,13.0,25.0,74,0.00,CLR,SKC,0.00,WeatherDisplay:10.37,2013-01-04 19:50:00,
2013-01-04 15:00:00,26.1,19.3,30.13,West,268,9.0,25.0,75,0.00,CLR,SKC,0.00,WeatherDisplay:10.37,2013-01-04 20:00:00,
2013-01-04 15:10:00,26.2,19.6,30.13,West,266,10.0,26.0,76,0.00,CLR,SKC,0.00,WeatherDisplay:10.37,2013-01-04 20:10:00,
2013-01-04 15:20:00,26.5,20.3,30.13,West,265,7.0,18.0,77,0.00,CLR,SKC,0.00,WeatherDisplay:10.37,2013-01-04 20:20:00,
2013-01-04 15:30:00,26.2,19.9,30.13,West,265,14.0,25.0,77,0.00,CLR,SKC,0.00,WeatherDisplay:10.37,2013-01-04 20:30:00,
2013-01-04 15:40:00,27.2,21.2,30.13,West,266,7.0,23.0,78,0.00,CLR,SKC,0.00,WeatherDisplay:10.37,2013-01-04 20:40:00,
2013-01-04 15:49:00,27.5,21.2,30.13,WSW,258,7.0,24.0,77,0.00,CLR,SKC,0.00,WeatherDisplay:10.37,2013-01-04 20:49:00,
2013-01-04 15:59:00,27.0,20.8,30.14,West,263,10.0,23.0,77,0.00,CLR,SKC,0.00,WeatherDisplay:10.37,2013-01-04 20:59:00,
2013-01-04 16:09:00,26.6,20.4,30.13,West,264,9.0,22.0,77,0.00,CLR,SKC,0.00,WeatherDisplay:10.37,2013-01-04 21:09:00,
2013-01-04 16:19:00,27.4,21.2,30.13,West,261,10.0,22.0,77,0.00,CLR,SKC,0.00,WeatherDisplay:10.37,2013-01-04 21:19:00,
2013-01-04 16:29:00,27.4,21.1,30.13,West,264,2.0,20.0,77,0.00,CLR,SKC,0.00,WeatherDisplay:10.37,2013-01-04 21:29:00,
2013-01-04 16:39:00,27.7,21.4,30.12,WSW,256,9.0,18.0,77,0.00,CLR,SKC,0.00,WeatherDisplay:10.37,2013-01-04 21:39:00,
2013-01-04 16:49:00,27.6,21.3,30.12,WSW,258,5.0,21.0,77,0.00,CLR,SKC,0.00,WeatherDisplay:10.37,2013-01-04 21:49:00,
2013-01-04 16:59:00,27.6,21.6,30.12,WSW,256,2.0,20.0,78,0.00,CLR,SKC,0.00,WeatherDisplay:10.37,2013-01-04 21:59:00,
2013-01-04 17:09:00,26.7,21.1,30.12,West,259,9.0,17.0,79,0.00,CLR,SKC,0.00,WeatherDisplay:10.37,2013-01-04 22:09:00,
2013-01-04 17:19:00,26.1,20.8,30.12,WSW,258,13.0,20.0,80,0.00,CLR,SKC,0.00,WeatherDisplay:10.37,2013-01-04 22:19:00,
2013-01-04 17:29:00,26.7,21.7,30.12,WSW,258,6.0,20.0,81,0.00,CLR,SKC,0.00,WeatherDisplay:10.37,2013-01-04 22:29:00,
2013-01-04 17:39:00,26.0,21.0,30.12,WSW,251,9.0,16.0,81,0.00,CLR,SKC,0.00,WeatherDisplay:10.37,2013-01-04 22:39:00,
2013-01-04 17:49:00,26.4,21.7,30.12,WSW,257,9.0,18.0,82,0.00,CLR,SKC,0.00,WeatherDisplay:10.37,2013-01-04 22:49:00,
2013-01-04 17:59:00,25.6,20.9,30.12,WSW,250,9.0,17.0,82,0.00,CLR,SKC,0.00,WeatherDisplay:10.37,2013-01-04 22:59:00,
2013-01-04 18:09:00,26.2,21.7,30.13,WSW,254,8.0,20.0,83,0.00,CLR,SKC,0.00,WeatherDisplay:10.37,2013-01-04 23:09:00,
2013-01-04 18:19:00,25.6,21.5,30.13,WSW,256,7.0,21.0,84,0.00,CLR,SKC,0.00,WeatherDisplay:10.37,2013-01-04 23:19:00,
2013-01-04 18:29:00,25.4,21.2,30.14,WSW,258,10.0,18.0,84,0.00,CLR,SKC,0.00,WeatherDisplay:10.37,2013-01-04 23:29:00,
2013-01-04 18:40:00,25.3,21.1,30.14,WSW,256,7.0,22.0,84,0.00,CLR,SKC,0.00,WeatherDisplay:10.37,2013-01-04 23:40:00,
2013-01-04 18:50:00,24.7,20.6,30.14,WSW,251,10.0,18.0,84,0.00,CLR,SKC,0.00,WeatherDisplay:10.37,2013-01-04 23:50:00,
2013-01-04 19:00:00,25.4,21.2,30.15,WSW,249,7.0,17.0,84,0.00,CLR,SKC,0.00,WeatherDisplay:10.37,2013-01-05 00:00:00,
2013-01-04 19:10:00,24.8,20.9,30.15,WSW,257,12.0,20.0,85,0.00,CLR,SKC,0.00,WeatherDisplay:10.37,2013-01-05 00:10:00,
2013-01-04 19:20:00,24.8,21.0,30.15,WSW,258,8.0,15.0,85,0.00,CLR,SKC,0.00,WeatherDisplay:10.37,2013-01-05 00:20:00,
2013-01-04 19:30:00,24.6,20.8,30.16,West,262,9.0,14.0,85,0.00,CLR,SKC,0.00,WeatherDisplay:10.37,2013-01-05 00:30:00,
2013-01-04 19:40:00,24.7,20.9,30.16,West,262,5.0,17.0,85,0.00,CLR,SKC,0.00,WeatherDisplay:10.37,2013-01-05 00:40:00,
2013-01-04 19:50:00,24.4,20.6,30.17,West,261,7.0,14.0,85,0.00,CLR,SKC,0.00,WeatherDisplay:10.37,2013-01-05 00:50:00,
2013-01-04 20:00:00,25.2,21.6,30.17,West,262,7.0,13.0,86,0.00,CLR,SKC,0.00,WeatherDisplay:10.37,2013-01-05 01:00:00,
2013-01-04 20:10:00,24.4,20.5,30.16,West,263,7.0,14.0,85,0.00,CLR,SKC,0.00,WeatherDisplay:10.37,2013-01-05 01:10:00,
2013-01-04 20:20:00,25.7,22.1,30.16,WSW,255,7.0,15.0,86,0.00,CLR,SKC,0.00,WeatherDisplay:10.37,2013-01-05 01:20:00,
2013-01-04 20:30:00,25.2,21.4,30.17,West,263,8.0,13.0,85,0.00,CLR,SKC,0.00,WeatherDisplay:10.37,2013-01-05 01:30:00,
2013-01-04 20:40:00,25.7,21.8,30.17,West,268,8.0,17.0,85,0.00,CLR,SKC,0.00,WeatherDisplay:10.37,2013-01-05 01:40:00,
2013-01-04 20:50:00,25.5,21.6,30.17,West,264,6.0,15.0,85,0.00,CLR,SKC,0.00,WeatherDisplay:10.37,2013-01-05 01:50:00,
2013-01-04 21:00:00,26.3,22.1,30.17,West,261,6.0,14.0,84,0.00,CLR,SKC,0.00,WeatherDisplay:10.37,2013-01-05 02:00:00,
2013-01-04 21:10:00,25.9,21.7,30.17,West,270,9.0,15.0,84,0.00,CLR,SKC,0.00,WeatherDisplay:10.37,2013-01-05 02:10:00,
2013-01-04 21:20:00,26.8,22.7,30.17,West,270,8.0,16.0,84,0.00,CLR,SKC,0.00,WeatherDisplay:10.37,2013-01-05 02:20:00,
2013-01-04 21:30:00,26.4,22.2,30.17,West,268,7.0,17.0,84,0.00,CLR,SKC,0.00,WeatherDisplay:10.37,2013-01-05 02:30:00,
2013-01-04 21:40:00,25.9,21.7,30.17,West,269,10.0,15.0,84,0.00,CLR,SKC,0.00,WeatherDisplay:10.37,2013-01-05 02:40:00,
2013-01-04 21:50:00,26.2,22.0,30.17,West,271,8.0,14.0,84,0.00,CLR,SKC,0.00,WeatherDisplay:10.37,2013-01-05 02:50:00,
2013-01-04 22:00:00,25.6,21.4,30.17,West,264,7.0,15.0,84,0.00,CLR,SKC,0.00,WeatherDisplay:10.37,2013-01-05 03:00:00,
2013-01-04 22:10:00,25.7,21.6,30.17,West,265,10.0,16.0,84,0.00,CLR,SKC,0.00,WeatherDisplay:10.37,2013-01-05 03:10:00,
2013-01-04 22:20:00,26.2,22.0,30.17,West,267,8.0,20.0,84,0.00,CLR,SKC,0.00,WeatherDisplay:10.37,2013-01-05 03:20:00,
2013-01-04 22:30:00,25.4,21.5,30.18,West,268,10.0,20.0,85,0.00,CLR,SKC,0.00,WeatherDisplay:10.37,2013-01-05 03:30:00,
2013-01-04 22:40:00,26.1,22.2,30.18,West,270,10.0,16.0,85,0.00,CLR,SKC,0.00,WeatherDisplay:10.37,2013-01-05 03:40:00,
2013-01-04 22:50:00,26.7,23.1,30.18,West,264,1.0,13.0,86,0.00,CLR,SKC,0.00,WeatherDisplay:10.37,2013-01-05 03:50:00,
2013-01-04 23:00:00,25.5,21.7,30.18,West,265,8.0,12.0,85,0.00,CLR,SKC,0.00,WeatherDisplay:10.37,2013-01-05 04:00:00,
2013-01-04 23:10:00,25.5,21.9,30.19,West,262,5.0,15.0,86,0.00,CLR,SKC,0.00,WeatherDisplay:10.37,2013-01-05 04:10:00,
2013-01-04 23:20:00,25.5,21.9,30.19,West,265,8.0,15.0,86,0.00,CLR,SKC,0.00,WeatherDisplay:10.37,2013-01-05 04:20:00,
2013-01-04 23:30:00,25.8,22.2,30.19,West,268,8.0,14.0,86,0.00,CLR,SKC,0.00,WeatherDisplay:10.37,2013-01-05 04:30:00,
2013-01-04 23:40:00,26.2,22.5,30.19,West,269,7.0,14.0,86,0.00,CLR,SKC,0.00,WeatherDisplay:10.37,2013-01-05 04:40:00,
2013-01-04 23:50:00,25.8,22.2,30.19,West,261,7.0,13.0,86,0.00,CLR,SKC,0.00,WeatherDisplay:10.37,2013-01-05 04:50:00,